Temperature
18 19 19 19 19 19 19 19 19 19 19 19 18 18 18 18 18 18 18 18 18 19 19 19 19 19 19 19 19 18 18 18 18 19 19 19 19 19 18 18 18 18 18
18 19 19 19 19 19 18 18 18 18 18 18 18 18 18 18 18 18 18 18 18 18 18 19 18 18 18 18 18 18 18 18 18 18 18 18 18 18 18 18 18 18 18
18 18 19 19 18 18 18 18 18 18 18 18 18 18 18 18 18 18 18 18 18 18 18 18 18 18 18 18 18 18 18 18 18 18 18 18 18 18 18 18 18 18 18
18 18 18 18 18 18 18 18 18 18 18 18 18 18 18 18 18 18 18 18 18 18 18 18 18 18 18 18 18 18 18 18 18 18 18 18 18 18 18 18 18 18 18
18 18 18 18 18 18 18 18 18 18 18 18 18 18 18 18 18 18 18 18 18 18 18 18 18 18 18 18 18 18 18 18 18 18 18 18 18 18 18 18 18 18 18
18 18 18 18 18 18 18 18 18 18 18 18 18 18 17 18 18 18 18 18 18 18 18 18 18 18 18 18 18 18 18 18 18 18 18 18 18 18 18 18 18 18 18
18 18 18 18 18 18 18 18 18 17 17 17 17 17 17 17 17 17 18 18 18 18 18 18 18 18 18 18 18 18 18 18 18 18 18 18 18 18 18 18 18 18 18
18 18 18 18 18 18 18 17 17 17 17 17 17 17 17 17 17 17 17 17 17 17 17 17 18 18 18 18 18 18 18 18 18 18 18 18 18 18 18 18 18 18 18
19 18 18 18 18 18 17 17 17 17 17 17 17 17 17 17 17 17 17 17 17 17 17 17 17 17 18 18 18 18 18 18 18 18 18 18 18 18 18 18 18 18 18
19 19 18 18 17 17 17 17 17 17 17 16 16 16 16 16 16 16 16 16 16 17 17 17 17 17 17 17 18 18 18 18 18 18 18 18 18 18 18 18 18 18 18
19 19 18 18 18 17 17 17 17 16 16 16 16 16 16 16 16 16 16 16 16 16 16 17 17 17 17 17 17 17 18 18 18 18 18 18 18 18 18 18 18 18 18
19 19 19 18 18 18 17 17 17 16 16 16 16 16 15 15 16 16 16 16 16 16 16 16 16 17 17 17 17 17 17 18 18 18 18 18 18 18 18 18 18 18 18
19 19 19 18 18 18 17 17 17 16 16 16 16 16 15 15 15 15 15 15 15 15 15 16 16 16 17 17 17 17 17 17 17 18 18 18 18 18 18 18 18 18 18
19 19 18 18 18 18 17 17 17 16 16 16 16 15 15 15 15 15 15 15 15 15 15 15 16 16 16 16 17 17 17 17 17 17 17 17 18 18 18 18 18 18 18
19 18 18 18 18 17 17 17 17 16 16 16 15 15 15 15 15 15 15 15 15 15 15 15 15 16 16 16 16 17 17 17 17 17 17 17 18 18 18 18 18 18 18
19 19 18 18 17 17 17 16 16 16 16 15 15 15 15 15 15 15 15 15 15 15 15 15 15 15 15 16 16 16 17 17 17 17 17 17 17 18 18 18 18 18 18
20 19 18 17 17 17 16 16 16 16 15 15 15 15 15 14 14 14 14 14 14 14 14 15 15 15 15 15 16 16 16 17 17 17 17 17 17 18 18 18 18 18 18
19 19 18 17 17 16 16 16 15 15 15 15 15 14 14 14 14 14 14 14 14 14 14 14 14 14 15 15 15 16 16 16 16 17 17 17 17 17 18 18 18 18 18
19 19 18 17 16 16 16 15 15 15 15 15 14 14 14 14 14 14 14 14 14 14 14 14 14 14 14 15 15 15 16 16 16 16 17 17 17 17 17 17 17 17 18
19 18 18 17 16 16 16 15 15 15 14 14 14 14 14 14 14 14 14 13 13 13 14 13 14 14 14 14 15 15 16 16 16 16 16 17 17 17 17 17 17 17 17
19 18 18 17 16 16 15 15 15 15 14 14 14 14 13 13 13 13 13 13 13 13 13 13 13 14 14 14 14 15 15 16 16 16 16 16 17 17 17 17 17 17 17
19 18 17 17 16 16 15 15 15 14 14 14 14 14 13 13 13 13 13 13 13 13 13 13 13 13 14 14 14 14 15 15 16 16 16 16 16 17 17 17 17 17 17
19 18 17 17 16 16 15 15 14 14 14 14 14 14 13 13 13 13 13 13 13 13 13 13 13 13 14 14 14 14 15 15 15 16 16 16 16 16 17 17 17 17 17
18 18 17 16 16 15 15 15 14 14 14 14 14 14 13 13 13 13 13 13 13 13 13 13 13 13 13 14 14 14 14 15 15 15 15 16 16 16 16 16 16 16 17
18 18 17 16 16 15 15 15 14 14 14 14 14 14 14 13 13 13 13 13 13 13 13 13 13 13 13 13 14 14 14 14 15 15 15 15 16 16 16 16 16 16 16
18 17 17 16 16 15 15 15 15 14 14 14 14 14 14 14 14 13 13 13 13 13 13 13 13 13 13 13 13 14 14 14 14 15 15 15 15 15 16 16 16 16 16
Wind_Speed
10 12 12 11 10 9 9 8 8 7 7 6 5 4 4 3 3 3 3 4 4 5 5 5 5 6 5 6 6 6 6 6 5 4 4 3 3 4 5 5 5 6 8
13 14 12 11 10 9 8 7 6 6 6 6 4 3 2 2 2 2 3 3 3 4 4 4 4 4 5 5 5 6 6 5 5 4 3 2 1 2 4 6 7 7 7
14 14 12 11 10 9 8 7 6 6 5 5 4 3 3 2 3 3 3 3 4 4 4 4 4 4 4 4 5 5 5 6 6 6 7 4 2 3 5 5 6 6 6
13 13 12 11 10 9 8 8 7 6 6 5 5 4 4 3 3 4 4 4 4 5 5 5 5 4 4 4 4 4 5 6 7 9 6 1 3 6 5 5 5 6 6
12 14 13 11 10 9 8 7 7 6 6 5 5 4 4 4 4 4 4 4 5 5 5 5 5 5 4 4 4 4 5 6 9 9 5 2 7 6 5 4 4 5 5
12 13 12 10 9 8 7 7 6 6 5 5 5 4 4 3 4 4 4 5 5 5 6 5 5 5 5 5 4 5 5 6 9 9 4 4 7 6 5 4 4 4 5
10 11 12 10 9 8 7 6 5 5 5 5 4 4 3 3 4 4 5 5 5 5 5 5 5 5 6 5 5 5 5 7 9 9 2 4 7 7 6 4 3 4 4
9 9 12 11 9 8 7 6 5 4 3 3 3 3 3 4 4 5 5 4 5 5 5 5 5 5 5 6 5 6 6 7 8 7 2 5 8 8 6 4 3 3 4
7 7 9 10 10 9 8 6 4 2 0 1 2 3 4 5 6 6 5 4 4 5 5 5 5 6 6 6 6 7 7 7 8 8 3 5 9 8 6 4 3 3 4
6 5 5 6 7 7 8 8 6 4 4 4 5 6 7 9 10 10 7 5 5 5 5 5 5 6 6 7 7 7 8 7 9 9 2 6 9 8 6 4 4 4 4
5 4 4 4 4 3 5 7 7 6 7 7 7 9 9 9 7 7 5 4 5 7 7 7 7 7 7 8 8 8 8 7 8 6 3 8 9 7 5 4 4 4 4
5 3 3 3 3 1 1 3 2 2 4 5 3 3 4 5 5 4 2 6 7 9 10 10 10 9 8 7 8 9 7 7 7 5 6 10 8 7 5 4 5 5 5
5 3 3 2 2 1 1 2 1 1 1 1 4 4 4 4 4 2 1 3 5 7 6 6 7 6 5 4 4 5 6 5 5 4 7 9 8 6 6 5 6 6 7
6 5 3 3 2 2 2 1 1 1 1 1 3 5 3 1 3 2 1 1 2 2 2 2 2 4 3 3 4 4 4 3 3 2 7 9 8 7 6 6 7 7 8
6 5 4 1 3 3 2 1 2 2 2 2 3 5 3 1 3 3 2 1 2 2 1 2 3 3 3 3 3 3 3 3 4 4 6 9 9 8 7 7 7 8 9
5 5 4 2 3 3 3 3 3 2 1 2 3 5 5 3 2 3 3 2 2 2 2 2 3 2 2 2 3 3 4 3 4 4 6 8 10 10 9 8 8 10 10
5 5 5 3 3 4 5 5 3 2 3 2 2 4 5 4 3 2 3 3 2 2 2 2 3 2 2 2 3 5 4 4 3 4 5 7 8 10 10 10 9 10 11
4 5 6 4 4 5 5 3 3 3 3 2 3 4 6 6 5 2 3 3 3 2 2 2 1 2 2 2 3 4 4 3 4 4 4 5 6 8 9 10 10 11 11
5 4 5 5 3 5 3 1 1 2 2 2 4 4 6 7 7 3 2 2 3 2 2 3 2 1 2 2 3 3 3 2 3 4 4 4 5 7 9 10 11 11 12
4 4 5 6 3 4 1 2 3 3 3 2 2 3 5 5 6 4 2 2 2 2 2 3 3 3 2 2 4 3 2 2 3 3 3 3 2 5 8 9 10 9 11
5 4 5 4 4 4 2 2 2 2 3 2 2 3 5 5 5 4 3 3 2 1 2 3 2 3 2 2 2 2 2 1 1 2 1 1 1 2 4 7 8 8 9
5 5 4 3 4 5 2 1 1 1 2 1 2 2 4 4 5 5 4 4 3 2 2 3 2 2 2 2 0 1 1 2 2 1 2 1 1 1 3 5 6 8 9
5 5 3 3 5 5 2 1 2 2 2 1 2 2 2 2 2 2 4 4 4 2 1 2 1 1 2 2 1 1 0 1 1 1 2 1 1 1 1 2 3 5 9
6 5 4 4 4 4 2 2 2 1 2 2 2 1 2 1 1 2 3 3 3 2 2 2 1 1 1 1 2 1 1 0 1 0 1 0 1 1 1 1 1 2 5
7 6 3 4 4 3 2 3 1 1 2 2 2 2 2 1 2 1 2 3 3 2 1 2 1 1 1 1 1 1 1 1 1 1 1 0 1 0 1 1 1 1 3
7 6 4 4 4 3 1 1 1 1 2 2 3 3 3 1 2 2 2 3 2 2 2 1 2 2 1 1 1 1 0 0 0 0 0 0 0 1 0 1 2 2 3
Wind_Direction
113 113 113 109 103 98 93 89 85 79 72 68 68 72 70 53 37 22 23 24 15 16 20 16 10 12 13 16 13 10 7 8 6 7 11 23 38 45 45 36 36 66 66
116 112 108 104 101 96 93 87 81 75 70 65 59 54 52 41 27 14 8 1 357 357 358 356 358 1 4 10 4 360 358 354 347 339 326 321 66 68 61 49 51 67 61
110 112 106 99 95 91 89 85 76 68 63 56 47 38 26 13 3 349 341 337 337 334 333 331 331 337 346 357 354 348 348 340 331 318 298 274 158 107 82 62 62 65 60
109 109 104 99 92 87 81 75 68 61 54 49 43 36 25 10 353 337 326 322 323 323 320 321 317 316 319 331 332 331 332 326 317 310 300 275 122 108 91 71 66 68 65
103 102 100 99 93 86 79 74 67 58 51 43 35 26 19 13 0 346 336 325 322 317 313 314 314 307 298 296 300 306 315 315 311 302 305 70 100 107 97 81 75 80 77
106 107 106 102 96 90 83 75 65 54 47 39 28 18 8 359 356 343 331 320 314 310 310 308 301 296 288 281 286 293 299 304 304 294 287 112 116 115 104 89 80 90 90
112 116 119 115 110 102 95 84 68 52 43 35 23 11 357 337 325 319 313 309 307 305 307 308 299 285 272 268 273 280 287 293 283 285 293 122 124 122 113 102 91 98 99
117 122 127 132 130 121 111 99 80 56 36 20 8 356 334 315 300 296 294 292 294 298 299 298 291 280 269 262 262 267 273 281 288 293 260 133 131 128 124 118 111 108 112
113 121 134 146 148 146 136 127 118 112 60 306 297 294 288 283 275 269 267 270 282 282 287 286 283 275 267 262 260 258 261 268 283 280 270 133 138 134 135 134 129 125 126
128 127 129 133 135 148 157 159 161 179 213 242 251 256 262 267 259 248 245 242 259 268 270 272 272 270 264 258 255 256 254 260 262 263 224 143 140 141 144 148 152 145 144
116 117 121 114 110 146 169 156 181 201 215 237 241 242 252 263 262 239 218 212 238 253 257 257 260 262 257 248 240 242 244 244 256 249 172 141 144 146 152 161 166 155 154
125 99 85 92 102 75 20 121 183 207 205 242 270 258 265 293 302 298 195 222 240 247 250 247 253 258 250 239 228 226 232 241 256 237 166 152 150 155 164 171 175 168 161
111 87 66 48 69 61 76 47 335 288 226 323 359 339 338 338 328 316 265 228 250 253 248 250 247 250 238 223 208 208 223 240 246 234 162 159 159 164 176 180 181 175 172
105 92 55 19 19 27 54 24 297 0 22 24 2 350 359 350 326 324 332 336 288 289 270 257 249 253 252 252 226 211 218 227 244 200 166 169 171 176 186 192 186 180 177
122 123 101 5 10 27 55 322 15 28 14 1 23 341 348 2 323 331 310 341 313 306 301 285 270 274 271 265 261 236 237 235 241 216 181 182 178 185 195 198 193 185 181
116 112 100 58 27 19 35 26 23 16 336 10 30 337 349 356 328 331 325 327 303 298 291 278 281 280 272 272 275 260 230 229 237 232 187 192 191 191 198 202 199 191 186
111 106 93 61 37 31 39 25 11 347 15 23 16 346 347 348 334 344 354 334 314 329 327 315 306 303 290 277 269 260 240 225 223 235 212 199 195 196 198 202 200 193 187
103 93 92 72 45 47 43 20 354 9 19 1 10 9 354 352 351 1 356 326 322 345 329 304 302 318 304 290 277 257 241 216 229 234 229 206 190 187 194 199 196 190 186
100 91 101 90 59 64 42 334 7 18 12 0 22 20 1 351 350 354 341 328 332 340 341 318 324 300 292 290 281 260 247 204 230 243 229 203 198 177 180 192 192 186 184
120 111 94 93 80 77 53 5 33 20 2 15 27 21 3 348 351 347 328 327 332 348 338 313 318 313 294 290 293 289 259 222 211 224 235 213 191 182 175 177 180 185 185
138 113 100 109 102 85 47 11 13 4 358 9 17 21 359 357 350 333 329 321 327 320 303 307 310 307 294 293 313 315 304 273 227 198 208 204 191 186 165 166 171 171 176
135 120 116 110 100 92 78 355 333 21 333 10 357 14 9 1 357 342 343 335 326 309 316 300 298 312 307 314 341 350 318 345 327 227 192 202 176 167 175 176 176 166 168
135 119 109 107 110 104 109 43 12 9 315 342 350 17 357 342 346 327 328 324 321 325 299 283 275 274 291 301 326 148 160 215 300 275 225 194 164 153 162 183 177 170 168
137 126 142 132 117 116 121 81 6 336 344 5 0 352 326 350 344 337 321 313 309 306 303 301 308 266 253 287 305 316 305 196 154 260 311 255 181 142 137 169 144 147 162
138 133 143 129 118 107 96 122 250 355 355 351 340 335 327 337 312 318 316 304 299 290 296 303 300 277 231 242 270 304 313 325 284 157 215 286 20 42 130 139 125 122 143
132 133 144 137 120 112 141 183 170 79 344 332 335 337 321 311 312 345 327 317 324 335 345 323 304 273 232 245 258 261 262 246 288 91 186 247 241 265 181 144 138 141 141
Height
1506 1506 1508 1509 1510 1511 1512 1512 1513 1514 1515 1516 1516 1517 1518 1519 1519 1520 1520 1521 1521 1521 1521 1521 1522 1522 1522 1522 1522 1522 1522 1522 1522 1521 1521 1521 1521 1521 1521 1521 1521 1520 1520
1506 1507 1508 1509 1510 1511 1512 1513 1514 1514 1515 1516 1516 1517 1518 1519 1519 1520 1520 1520 1521 1521 1521 1521 1521 1521 1522 1522 1522 1522 1522 1522 1522 1522 1522 1522 1522 1522 1522 1521 1521 1521 1521
1507 1507 1508 1509 1510 1511 1512 1513 1514 1514 1515 1515 1516 1517 1517 1518 1518 1519 1519 1520 1520 1520 1521 1521 1521 1521 1521 1521 1522 1522 1522 1522 1522 1522 1522 1522 1522 1522 1522 1522 1522 1522 1521
1507 1508 1509 1510 1511 1511 1512 1513 1513 1514 1514 1515 1515 1516 1516 1517 1517 1518 1518 1519 1519 1520 1520 1520 1520 1520 1521 1521 1521 1522 1522 1522 1522 1522 1523 1523 1523 1523 1523 1522 1522 1522 1522
1508 1509 1510 1510 1511 1511 1512 1513 1513 1513 1513 1514 1514 1515 1515 1515 1516 1516 1517 1517 1518 1518 1519 1519 1519 1519 1520 1520 1521 1521 1521 1522 1522 1522 1523 1523 1523 1523 1523 1523 1523 1522 1522
1509 1509 1510 1511 1511 1511 1512 1512 1512 1512 1512 1513 1513 1513 1513 1514 1514 1515 1515 1516 1516 1516 1517 1517 1518 1518 1519 1519 1519 1520 1520 1521 1522 1522 1523 1523 1523 1523 1523 1523 1523 1523 1523
1510 1510 1510 1511 1511 1511 1511 1512 1512 1512 1512 1512 1512 1512 1512 1512 1512 1513 1513 1513 1514 1514 1515 1515 1516 1516 1517 1517 1518 1518 1519 1520 1521 1521 1522 1522 1522 1523 1523 1523 1523 1524 1524
1510 1511 1511 1511 1511 1511 1511 1511 1511 1511 1511 1510 1510 1510 1510 1510 1510 1511 1511 1511 1511 1512 1512 1513 1513 1514 1515 1515 1516 1517 1518 1519 1520 1521 1522 1522 1522 1522 1522 1523 1523 1524 1524
1511 1512 1511 1511 1511 1511 1511 1511 1510 1510 1510 1509 1509 1509 1509 1509 1509 1509 1509 1509 1509 1509 1510 1510 1511 1512 1513 1513 1514 1515 1516 1517 1518 1520 1521 1521 1522 1522 1522 1522 1523 1524 1525
1511 1512 1512 1512 1512 1511 1510 1510 1510 1510 1509 1509 1508 1508 1508 1507 1507 1507 1507 1507 1507 1507 1507 1508 1509 1509 1510 1511 1512 1513 1514 1516 1517 1518 1519 1520 1521 1521 1521 1522 1523 1524 1525
1512 1512 1513 1512 1512 1512 1511 1510 1510 1509 1508 1508 1507 1507 1507 1507 1507 1506 1506 1506 1505 1505 1505 1505 1506 1507 1508 1509 1510 1511 1512 1513 1515 1516 1518 1518 1519 1520 1521 1521 1522 1523 1524
1511 1512 1513 1512 1512 1512 1512 1510 1509 1509 1508 1508 1507 1507 1506 1506 1506 1505 1505 1504 1504 1503 1503 1503 1504 1505 1505 1506 1508 1509 1510 1511 1513 1514 1516 1517 1518 1519 1519 1520 1521 1523 1524
1511 1511 1512 1512 1511 1511 1510 1510 1509 1508 1508 1507 1506 1506 1505 1505 1504 1504 1503 1503 1502 1502 1502 1502 1502 1503 1504 1505 1506 1507 1508 1509 1510 1512 1514 1515 1517 1518 1518 1519 1521 1522 1523
1510 1511 1511 1511 1511 1510 1509 1508 1508 1508 1507 1506 1505 1505 1504 1503 1503 1502 1502 1501 1501 1501 1500 1500 1500 1501 1502 1503 1504 1505 1506 1507 1508 1510 1511 1513 1515 1516 1517 1518 1519 1521 1522
1509 1509 1509 1509 1509 1509 1508 1507 1507 1506 1505 1505 1504 1503 1503 1502 1501 1501 1500 1500 1499 1499 1499 1499 1499 1499 1499 1500 1501 1503 1504 1505 1507 1508 1509 1511 1513 1514 1515 1517 1518 1520 1521
1508 1509 1509 1509 1508 1508 1507 1506 1506 1505 1504 1504 1502 1502 1502 1501 1500 1499 1499 1498 1498 1497 1497 1497 1497 1497 1497 1498 1499 1500 1501 1503 1504 1506 1507 1509 1511 1512 1514 1515 1517 1518 1520
1507 1508 1507 1508 1507 1507 1506 1505 1505 1504 1503 1502 1501 1501 1500 1499 1499 1498 1497 1496 1496 1496 1495 1495 1495 1495 1495 1496 1497 1498 1499 1500 1502 1503 1505 1506 1508 1510 1512 1513 1515 1517 1519
1506 1507 1506 1507 1506 1506 1505 1504 1504 1503 1502 1502 1501 1500 1499 1498 1497 1496 1495 1495 1494 1494 1494 1493 1493 1493 1494 1494 1495 1496 1497 1498 1500 1501 1502 1504 1506 1508 1510 1512 1514 1516 1517
1505 1506 1506 1505 1505 1505 1504 1504 1503 1503 1502 1501 1500 1499 1498 1497 1496 1495 1494 1493 1493 1492 1492 1492 1492 1492 1492 1493 1493 1494 1495 1496 1497 1499 1501 1502 1504 1506 1508 1510 1512 1514 1516
1505 1505 1505 1505 1505 1504 1504 1503 1503 1502 1501 1500 1499 1497 1496 1495 1494 1494 1493 1492 1491 1491 1490 1490 1490 1490 1491 1491 1492 1492 1493 1494 1495 1497 1498 1500 1502 1504 1506 1508 1510 1512 1514
1504 1504 1504 1504 1504 1503 1503 1502 1502 1501 1500 1499 1498 1496 1495 1494 1493 1492 1491 1491 1490 1490 1489 1489 1489 1489 1489 1490 1490 1490 1491 1492 1494 1495 1497 1498 1500 1502 1504 1506 1508 1510 1512
1503 1503 1504 1503 1503 1502 1502 1502 1501 1501 1500 1499 1497 1496 1494 1493 1492 1491 1490 1489 1489 1489 1488 1488 1488 1488 1488 1489 1490 1490 1491 1492 1492 1494 1495 1497 1498 1500 1502 1504 1507 1509 1511
1501 1502 1503 1503 1502 1501 1501 1501 1500 1500 1499 1498 1497 1495 1494 1492 1491 1490 1489 1488 1487 1487 1487 1487 1487 1487 1488 1488 1489 1490 1491 1491 1491 1493 1494 1496 1497 1499 1501 1503 1505 1507 1509
1500 1500 1501 1502 1502 1501 1501 1500 1500 1499 1498 1498 1496 1495 1493 1492 1490 1489 1488 1487 1486 1486 1486 1486 1486 1486 1487 1487 1488 1489 1490 1491 1491 1492 1494 1495 1496 1497 1499 1501 1503 1504 1507
1498 1499 1500 1500 1501 1500 1500 1499 1499 1498 1498 1497 1496 1494 1493 1492 1490 1489 1487 1486 1485 1485 1485 1485 1485 1485 1486 1486 1487 1488 1489 1490 1490 1491 1492 1494 1495 1496 1497 1499 1501 1502 1504
1497 1498 1499 1499 1499 1499 1499 1499 1498 1498 1497 1496 1495 1494 1493 1492 1490 1489 1487 1486 1485 1484 1484 1484 1484 1484 1485 1485 1486 1487 1488 1488 1489 1490 1491 1492 1493 1495 1495 1497 1499 1500 1502